Regional Weather Roundup
Issued by NWS New Orleans/Baton Rouge, LA

Home | Current Version | Previous Version | Graphics & Text | Print | Product List | Glossary On
Versions: 1 2 3 4 5 6 7 8 9 10 11 12 13 14 15 16 17 18 19 20 21 22 23 24 25 26 27 28 29 30 31 32 33 34 35 36 37 38 39 40 41 42 43 44 45 46 47 48 49 50
674
ASUS44 KLIX 200410
RWRLIX
NEW ORLEANS REGIONAL WEATHER ROUNDUP
NATIONAL WEATHER SERVICE NEW ORLEANS LA
1100 PM CDT TUE AUG 19 2014

NOTE: "FAIR" INDICATES FEW OR NO CLOUDS BELOW 12,000 FEET WITH NO
      SIGNIFICANT WEATHER AND/OR OBSTRUCTIONS TO VISIBILITY.
      SKY/WX - SKY CONDITION AND SIGNIFICANT WEATHER.
      TMP - AIR TEMPERATURE.     DP    - DEWPOINT TEMPERATURE.
      RH  - RELATIVE HUMIDITY.   PRES  - PRESSURE.
      HI  - HEAT INDEX.          WCI   - WIND CHILL INDEX.

*  THESE STATIONS ARE NOT NWS OR FAA STATIONS AND ARE NOT UNDER
   NWS QUALITY CONTROL.

LAZ038-040-048-061>063-065>067-069-200500-
SOUTHEAST LOUISIANA

CITY           SKY/WX    TMP DP  RH WIND       PRES   REMARKS
N.O. AUDUBON     N/A     82  78  89 MISG        N/A
N.O. INTL ARPT MOCLDY    82  74  76 CALM      29.99S
N.O. LAKEFRONT PTCLDY    84  74  71 W6        30.00S
N.O. DOWNTOWN*   N/A     84  72  65 CALM      30.00S
SLIDELL        PTCLDY    78  73  84 CALM      29.99R
BATON ROUGE    PTCLDY    76  70  82 SE3       29.99R
BOOTHVILLE     PTCLDY    84  76  76 S5        30.01S
BELLE CHASSE   MOCLDY    79  75  87 CALM      29.99S
BOGALUSA*        N/A     78  73  84 CALM      30.00S
GALLIANO*      NOT AVBL
NEW ROADS*       N/A     75  73  93 CALM      29.98S
GONZALES*        N/A     75  75 100 CALM      29.99R
HAMMOND*       PTCLDY    77  72  83 CALM      30.01R
HOUMA*         PTCLDY    77  72  85 CALM      30.00R
PORT FOURCHON* CLEAR     86  73  66 S3        30.02S

$$

MSZ070-080>082-200500-
SOUTHERN MISSISSIPPI

CITY           SKY/WX    TMP DP  RH WIND       PRES   REMARKS
MCCOMB         PTCLDY    79  72  79 CALM      29.99S
GULFPORT       CLEAR     80  74  81 CALM      29.99S
BILOXI         PTCLDY    82  72  70 CALM      30.00S
PASCAGOULA     CLEAR     78  76  93 CALM      30.01R

$$

COASTAL OBSERVATIONS
LAKE AND NEARSHORE STATIONS

STATION/POSITION TIME  TEMP    WIND        PRES    WAVE
                       AIR SEA DIR/SP/G            HT/PER
                 (UTC) (F)     (DEG/KT/KT) (MB)    (FT/S)
PASCAGOULA       0400   86     230/  6/  8 1015.8
WAVELAND YACHT   0400   82     210/  3/  3 1015.0
GRAND ISLE       0400   85 88  210/  2/  3 1016.7
SOUTHWEST PASS   0400   85 89  160/  3/  4 1016.6
NEW CANAL        0400   84 84  210/  1/  2 1016.1
SHELL BEACH      0400   83 82  180/  5/  6 1015.7

OFFSHORE STATIONS

STATION/POSITION TIME  TEMP    WIND        PRES    WAVE
                       AIR SEA DIR/SP/G            HT/PER
                 (UTC) (F)     (DEG/KT/KT) (MB)    (FT/S)
64 S DAUPHIN ISL 0301   86 88  210/  6/  8 1017.1

$$




USA.gov is the U.S. government's official web portal to all federal, state and local government web resources and services.